| time (UTC) | temp F | wind direction | speed knots | gust knots | rain 1hr in | rain 24hr in | rain mn in | humidity % | barometer mb |
| 20260507085135 | 48 | 63 | 1.7 | 5.2 | 0.01 | 0.31 | 0.03 | 89 | 1006.6 |
| 20260507084135 | 48 | 43 | 0.9 | 5.2 | 0.01 | 0.31 | 0.03 | 89 | 1006.9 |
| 20260507083037 | 48 | 58 | 1.7 | 5.2 | 0.01 | 0.31 | 0.03 | 90 | 1006.7 |
| 20260507082136 | 49 | 22 | 1.7 | 5.2 | 0.01 | 0.31 | 0.03 | 90 | 1006.6 |
| 20260507081136 | 49 | 332 | 0.9 | 5.2 | 0.01 | 0.31 | 0.03 | 90 | 1006.5 |
| 20260507080136 | 50 | 43 | 0.9 | 5.2 | 0.01 | 0.31 | 0.03 | 89 | 1006.7 |
| 20260507075137 | 50 | 32 | 1.7 | 5.2 | 0.00 | 0.30 | 0.02 | 89 | 1006.7 |
| 20260507074136 | 50 | 40 | 1.7 | 4.3 | 0.00 | 0.30 | 0.02 | 89 | 1006.9 |
| 20260507073137 | 50 | 75 | 1.7 | 4.3 | 0.00 | 0.30 | 0.02 | 89 | 1006.2 |
| 20260507072137 | 50 | 38 | 1.7 | 4.3 | 0.00 | 0.30 | 0.02 | 90 | 1006.0 |
| 20260507071136 | 50 | 347 | 0.9 | 3.5 | 0.00 | 0.30 | 0.02 | 90 | 1006.3 |
| 20260507070136 | 50 | 12 | 0.9 | 4.3 | 0.00 | 0.30 | 0.02 | 90 | 1006.1 |
| 20260507065136 | 50 | 88 | 0.9 | 4.3 | 0.00 | 0.30 | 0.02 | 90 | 1006.1 |
| 20260507064136 | 50 | 338 | 0.9 | 7.8 | 0.00 | 0.30 | 0.02 | 90 | 1005.9 |
| 20260507063137 | 50 | 46 | 0.9 | 7.8 | 0.00 | 0.30 | 0.02 | 89 | 1005.9 |
| 20260507062135 | 50 | 38 | 0.9 | 7.8 | 0.00 | 0.30 | 0.02 | 89 | 1005.8 |
| 20260507061136 | 50 | 42 | 1.7 | 7.8 | 0.00 | 0.30 | 0.02 | 88 | 1005.9 |
| 20260507060136 | 51 | 53 | 2.6 | 7.8 | 0.00 | 0.30 | 0.02 | 88 | 1006.0 |
| 20260507055137 | 51 | 58 | 2.6 | 7.8 | 0.00 | 0.30 | 0.02 | 89 | 1006.3 |
| 20260507054136 | 51 | 44 | 2.6 | 6.1 | 0.00 | 0.30 | 0.02 | 90 | 1006.4 |
| 20260507053137 | 51 | 53 | 1.7 | 7.8 | 0.00 | 0.30 | 0.02 | 90 | 1006.2 |
| 20260507052136 | 52 | 44 | 2.6 | 7.8 | 0.00 | 0.30 | 0.02 | 90 | 1006.7 |
| 20260507051136 | 52 | 334 | 2.6 | 7.8 | 0.01 | 0.30 | 0.02 | 91 | 1006.4 |
| 20260507050136 | 53 | 62 | 2.6 | 7.8 | 0.01 | 0.30 | 0.02 | 92 | 1006.5 |
| 20260507045136 | 53 | 33 | 2.6 | 7.8 | 0.01 | 0.30 | 0.02 | 92 | 1006.3 |
| 20260507044136 | 54 | 60 | 2.6 | 7.8 | 0.01 | 0.30 | 0.02 | 92 | 1006.1 |
| 20260507043138 | 55 | 58 | 3.5 | 7.8 | 0.01 | 0.30 | 0.02 | 92 | 1006.1 |
| 20260507042136 | 56 | 40 | 1.7 | 7.8 | 0.01 | 0.30 | 0.02 | 92 | 1006.1 |
| 20260507041137 | 57 | 47 | 0.9 | 7.8 | 0.01 | 0.29 | 0.01 | 91 | 1006.4 |
| 20260507040136 | 57 | 64 | 2.6 | 7.0 | 0.01 | 0.29 | 0.01 | 92 | 1006.1 |
| 20260507035136 | 58 | 46 | 3.5 | 7.0 | 0.01 | 0.29 | 0.01 | 93 | 1005.7 |
| 20260507034137 | 58 | 25 | 1.7 | 7.0 | 0.01 | 0.29 | 0.01 | 93 | 1005.7 |
| 20260507033136 | 58 | 66 | 1.7 | 7.0 | 0.01 | 0.29 | 0.01 | 94 | 1005.5 |
| 20260507032136 | 59 | 39 | 3.5 | 7.0 | 0.01 | 0.29 | 0.01 | 94 | 1005.3 |
| 20260507031136 | 58 | 22 | 2.6 | 5.2 | 0.00 | 0.28 | 0.00 | 94 | 1005.3 |
| 20260507030136 | 58 | 9 | 1.7 | 5.2 | 0.00 | 0.28 | 0.00 | 94 | 1005.0 |
| 20260507025136 | 59 | 274 | 1.7 | 5.2 | 0.00 | 0.28 | 0.00 | 94 | 1005.1 |
| 20260507024135 | 58 | 251 | 1.7 | 4.3 | 0.00 | 0.28 | 0.00 | 94 | 1005.0 |
| 20260507023136 | 58 | 308 | 2.6 | 7.8 | 0.00 | 0.28 | 0.00 | 94 | 1005.1 |
| 20260507022137 | 58 | 222 | 1.7 | 7.8 | 0.00 | 0.28 | 0.00 | 93 | 1004.9 |
| 20260507021135 | 58 | 255 | 1.7 | 7.8 | 0.00 | 0.28 | 0.00 | 93 | 1005.0 |
| 20260507020135 | 58 | 287 | 1.7 | 8.7 | 0.00 | 0.28 | 0.00 | 93 | 1005.0 |
| 20260507015136 | 58 | 141 | 0.9 | 8.7 | 0.00 | 0.28 | 0.00 | 93 | 1005.2 |
| 20260507014136 | 58 | 279 | 3.5 | 9.6 | 0.00 | 0.28 | 0.00 | 93 | 1005.1 |
| 20260507013137 | 58 | 272 | 1.7 | 9.6 | 0.00 | 0.28 | 0.00 | 93 | 1005.2 |
| 20260507012137 | 58 | 269 | 0.9 | 9.6 | 0.00 | 0.28 | 0.00 | 93 | 1005.3 |
| 20260507011137 | 58 | 317 | 2.6 | 9.6 | 0.00 | 0.28 | 0.00 | 93 | 1005.4 |
| 20260507010136 | 59 | 3 | 1.7 | 9.6 | 0.00 | 0.28 | 0.00 | 93 | 1005.3 |
| 20260507005136 | 59 | 287 | 2.6 | 9.6 | 0.00 | 0.28 | 0.00 | 93 | 1005.4 |
| 20260507004137 | 59 | 264 | 2.6 | 6.1 | 0.01 | 0.28 | 0.00 | 93 | 1005.2 |
| 20260507003136 | 59 | 294 | 2.6 | 6.1 | 0.01 | 0.28 | 0.00 | 93 | 1005.1 |
| 20260507002136 | 59 | 264 | 2.6 | 6.1 | 0.02 | 0.28 | 0.00 | 93 | 1005.0 |
| 20260507001137 | 59 | 275 | 1.7 | 6.1 | 0.05 | 0.28 | 0.00 | 93 | 1005.1 |
| 20260507000136 | 59 | 265 | 1.7 | 6.1 | 0.06 | 0.28 | 0.00 | 93 | 1005.1 |
| 20260506235136 | 59 | 341 | 2.6 | 6.1 | 0.07 | 0.28 | 0.28 | 93 | 1005.0 |
| 20260506234136 | 59 | 277 | 2.6 | 6.1 | 0.08 | 0.27 | 0.27 | 93 | 1005.0 |
| 20260506233136 | 59 | 275 | 1.7 | 6.1 | 0.10 | 0.27 | 0.27 | 93 | 1005.0 |
| 20260506232140 | 59 | 239 | 2.6 | 6.1 | 0.12 | 0.26 | 0.26 | 92 | 1005.0 |
| 20260506231136 | 59 | 327 | 1.7 | 6.1 | 0.09 | 0.23 | 0.23 | 92 | 1005.2 |
| 20260506230136 | 59 | 311 | 2.6 | 6.1 | 0.09 | 0.22 | 0.22 | 92 | 1005.4 |
| 20260506225136 | 59 | 69 | 2.6 | 7.0 | 0.09 | 0.21 | 0.21 | 92 | 1005.3 |
| 20260506224136 | 59 | 203 | 4.3 | 7.0 | 0.07 | 0.19 | 0.19 | 92 | 1005.4 |
| 20260506223136 | 59 | 152 | 1.7 | 7.0 | 0.06 | 0.17 | 0.17 | 91 | 1005.4 |
| 20260506222136 | 59 | 258 | 1.7 | 7.0 | 0.03 | 0.14 | 0.14 | 91 | 1005.5 |
| 20260506221136 | 60 | 291 | 2.6 | 7.0 | 0.03 | 0.14 | 0.14 | 91 | 1005.6 |
| 20260506220136 | 60 | 128 | 3.5 | 7.8 | 0.03 | 0.13 | 0.13 | 91 | 1005.7 |
| 20260506215136 | 60 | 274 | 2.6 | 7.8 | 0.03 | 0.12 | 0.12 | 91 | 1005.6 |
| 20260506214135 | 60 | 161 | 2.6 | 9.6 | 0.04 | 0.12 | 0.12 | 90 | 1005.6 |
| 20260506213137 | 60 | 72 | 2.6 | 9.6 | 0.05 | 0.11 | 0.11 | 90 | 1005.8 |
| 20260506212136 | 60 | 306 | 1.7 | 9.6 | 0.06 | 0.11 | 0.11 | 90 | 1006.0 |
| 20260506211135 | 60 | 260 | 3.5 | 9.6 | 0.08 | 0.11 | 0.11 | 89 | 1006.3 |
| 20260506210137 | 61 | 303 | 3.5 | 9.6 | 0.07 | 0.10 | 0.10 | 88 | 1006.1 |
| 20260506205138 | 61 | 225 | 3.5 | 9.6 | 0.07 | 0.09 | 0.09 | 87 | 1006.2 |
| 20260506204137 | 61 | 270 | 2.6 | 7.0 | 0.06 | 0.08 | 0.08 | 86 | 1006.3 |
| 20260506203136 | 61 | 281 | 2.6 | 7.0 | 0.05 | 0.06 | 0.06 | 86 | 1006.3 |
| 20260506202137 | 62 | 323 | 2.6 | 7.0 | 0.04 | 0.05 | 0.05 | 84 | 1006.1 |
| 20260506201136 | 63 | 310 | 3.5 | 6.1 | 0.03 | 0.03 | 0.03 | 83 | 1006.1 |
| 20260506200136 | 63 | 187 | 2.6 | 8.7 | 0.03 | 0.03 | 0.03 | 83 | 1006.2 |
| 20260506195136 | 64 | 211 | 1.7 | 9.6 | 0.02 | 0.02 | 0.02 | 81 | 1006.2 |
| 20260506194136 | 64 | 20 | 0.9 | 9.6 | 0.02 | 0.02 | 0.02 | 79 | 1006.3 |
| 20260506193138 | 65 | 158 | 1.7 | 12.2 | 0.01 | 0.01 | 0.01 | 77 | 1006.3 |
| 20260506192136 | 66 | 289 | 3.5 | 12.2 | 0.01 | 0.01 | 0.01 | 75 | 1006.2 |
| 20260506191136 | 67 | 190 | 3.5 | 12.2 | 0.00 | 0.00 | 0.00 | 71 | 1006.3 |
| 20260506190137 | 68 | 303 | 4.3 | 12.2 | 0.00 | 0.00 | 0.00 | 68 | 1006.3 |
| 20260506185136 | 69 | 243 | 3.5 | 12.2 | 0.00 | 0.00 | 0.00 | 66 | 1006.3 |
| 20260506184136 | 70 | 221 | 6.1 | 12.2 | 0.00 | 0.00 | 0.00 | 63 | 1006.1 |
| 20260506183136 | 71 | 311 | 5.2 | 12.2 | 0.00 | 0.00 | 0.00 | 60 | 1006.3 |
| 20260506182136 | 71 | 223 | 5.2 | 12.2 | 0.00 | 0.00 | 0.00 | 59 | 1006.1 |
| 20260506181136 | 72 | 311 | 3.5 | 12.2 | 0.00 | 0.00 | 0.00 | 59 | 1006.3 |
| 20260506180136 | 72 | 280 | 7.0 | 12.2 | 0.00 | 0.00 | 0.00 | 56 | 1006.3 |
| 20260506175136 | 73 | 279 | 4.3 | 11.3 | 0.00 | 0.00 | 0.00 | 57 | 1006.5 |
| 20260506174137 | 73 | 296 | 6.1 | 12.2 | 0.00 | 0.00 | 0.00 | 57 | 1006.5 |
| 20260506173137 | 75 | 297 | 5.2 | 12.2 | 0.00 | 0.00 | 0.00 | 56 | 1006.5 |
| 20260506172138 | 75 | 258 | 4.3 | 12.2 | 0.00 | 0.00 | 0.00 | 56 | 1006.3 |
| 20260506171136 | 74 | 287 | 6.1 | 12.2 | 0.00 | 0.00 | 0.00 | 57 | 1006.7 |
| 20260506170136 | 73 | 293 | 3.5 | 12.2 | 0.00 | 0.00 | 0.00 | 59 | 1006.8 |
| 20260506165135 | 72 | 254 | 5.2 | 12.2 | 0.00 | 0.00 | 0.00 | 59 | 1007.1 |
| 20260506164136 | 72 | 241 | 5.2 | 13.0 | 0.00 | 0.00 | 0.00 | 59 | 1007.1 |
| 20260506163136 | 72 | 139 | 4.3 | 13.0 | 0.00 | 0.00 | 0.00 | 59 | 1007.1 |
| 20260506162137 | 73 | 283 | 3.5 | 13.0 | 0.00 | 0.00 | 0.00 | 59 | 1007.4 |
| 20260506161136 | 73 | 262 | 3.5 | 13.0 | 0.00 | 0.00 | 0.00 | 60 | 1007.4 |
| 20260506160136 | 72 | 78 | 3.5 | 13.0 | 0.00 | 0.00 | 0.00 | 60 | 1007.8 |
| 20260506155136 | 72 | 289 | 3.5 | 13.0 | 0.00 | 0.00 | 0.00 | 60 | 1007.9 |
| 20260506154137 | 72 | 266 | 4.3 | 11.3 | 0.00 | 0.00 | 0.00 | 61 | 1008.1 |
| 20260506153136 | 73 | 308 | 4.3 | 11.3 | 0.00 | 0.00 | 0.00 | 62 | 1008.4 |
| 20260506152136 | 73 | 253 | 3.5 | 11.3 | 0.00 | 0.00 | 0.00 | 61 | 1008.5 |
| 20260506151136 | 72 | 208 | 2.6 | 11.3 | 0.00 | 0.00 | 0.00 | 63 | 1008.4 |
| 20260506150136 | 71 | 11 | 4.3 | 11.3 | 0.00 | 0.00 | 0.00 | 63 | 1008.5 |
| 20260506145136 | 71 | 271 | 5.2 | 11.3 | 0.00 | 0.00 | 0.00 | 64 | 1008.5 |
| 20260506144136 | 71 | 85 | 3.5 | 9.6 | 0.00 | 0.00 | 0.00 | 65 | 1008.5 |
| 20260506143135 | 71 | 291 | 4.3 | 9.6 | 0.00 | 0.00 | 0.00 | 65 | 1008.5 |
| 20260506142136 | 71 | 306 | 3.5 | 9.6 | 0.00 | 0.00 | 0.00 | 67 | 1008.2 |
| 20260506141136 | 69 | 258 | 5.2 | 9.6 | 0.00 | 0.00 | 0.00 | 68 | 1008.3 |
| 20260506140136 | 69 | 221 | 4.3 | 9.6 | 0.00 | 0.00 | 0.00 | 69 | 1008.4 |
| 20260506135137 | 68 | 250 | 4.3 | 9.6 | 0.00 | 0.00 | 0.00 | 71 | 1008.5 |
| 20260506134136 | 67 | 258 | 3.5 | 8.7 | 0.00 | 0.00 | 0.00 | 72 | 1008.8 |
| 20260506133136 | 66 | 267 | 2.6 | 8.7 | 0.00 | 0.00 | 0.00 | 72 | 1009.0 |
| 20260506132136 | 66 | 307 | 5.2 | 10.4 | 0.00 | 0.00 | 0.00 | 72 | 1009.1 |
| 20260506131137 | 66 | 319 | 3.5 | 10.4 | 0.00 | 0.00 | 0.00 | 73 | 1009.0 |
| 20260506130136 | 66 | 284 | 3.5 | 10.4 | 0.00 | 0.00 | 0.00 | 72 | 1009.1 |
| 20260506125136 | 66 | 267 | 3.5 | 10.4 | 0.00 | 0.00 | 0.00 | 73 | 1008.9 |
| 20260506124136 | 65 | 220 | 4.3 | 10.4 | 0.00 | 0.00 | 0.00 | 73 | 1008.9 |
| 20260506123137 | 65 | 292 | 4.3 | 10.4 | 0.00 | 0.00 | 0.00 | 73 | 1009.1 |
| 20260506122137 | 65 | 124 | 2.6 | 9.6 | 0.00 | 0.00 | 0.00 | 74 | 1009.1 |
| 20260506121138 | 64 | 230 | 4.3 | 9.6 | 0.00 | 0.00 | 0.00 | 76 | 1008.9 |
| 20260506120137 | 64 | 281 | 2.6 | 9.6 | 0.00 | 0.00 | 0.00 | 75 | 1009.2 |
| 20260506115136 | 63 | 165 | 4.3 | 9.6 | 0.00 | 0.00 | 0.00 | 76 | 1009.2 |
| 20260506114135 | 63 | 297 | 2.6 | 6.1 | 0.00 | 0.00 | 0.00 | 76 | 1009.3 |
| 20260506113136 | 63 | 340 | 3.5 | 7.8 | 0.00 | 0.00 | 0.00 | 76 | 1009.5 |
| 20260506112136 | 63 | 291 | 3.5 | 7.8 | 0.00 | 0.00 | 0.00 | 77 | 1009.5 |
| 20260506111137 | 62 | 248 | 2.6 | 7.8 | 0.00 | 0.00 | 0.00 | 78 | 1009.3 |
| 20260506110135 | 61 | 315 | 3.5 | 7.8 | 0.00 | 0.00 | 0.00 | 78 | 1009.5 |
| 20260506105137 | 61 | 232 | 3.5 | 7.8 | 0.00 | 0.00 | 0.00 | 78 | 1009.6 |
| 20260506104137 | 61 | 255 | 2.6 | 7.8 | 0.00 | 0.00 | 0.00 | 78 | 1009.5 |
| 20260506103136 | 60 | 257 | 4.3 | 7.0 | 0.00 | 0.00 | 0.00 | 78 | 1009.4 |
| 20260506102135 | 60 | 335 | 1.7 | 7.0 | 0.00 | 0.00 | 0.00 | 78 | 1009.4 |
| 20260506101136 | 60 | 283 | 1.7 | 7.0 | 0.00 | 0.00 | 0.00 | 78 | 1009.5 |
| 20260506100136 | 60 | 171 | 0.9 | 7.0 | 0.00 | 0.00 | 0.00 | 77 | 1009.6 |
| 20260506095137 | 60 | 274 | 1.7 | 7.0 | 0.00 | 0.00 | 0.00 | 77 | 1009.4 |
| 20260506094136 | 60 | 295 | 3.5 | 7.0 | 0.00 | 0.00 | 0.00 | 76 | 1009.3 |
| 20260506093137 | 60 | 214 | 3.5 | 7.8 | 0.00 | 0.00 | 0.00 | 76 | 1009.4 |
| 20260506092136 | 60 | 271 | 3.5 | 7.8 | 0.00 | 0.00 | 0.00 | 76 | 1009.5 |
| 20260506091135 | 61 | 40 | 1.7 | 7.8 | 0.00 | 0.00 | 0.00 | 75 | 1009.4 |
| 20260506090136 | 61 | 199 | 2.6 | 7.8 | 0.00 | 0.00 | 0.00 | 75 | 1009.4 |